Location: Archemont
(49.1579°N, 1.7598°E)
Time: 10:05:41
(UTC+00:00)

Altair - Pass Details

Date: 19 April 2024
Orbit: 1501 x 1682 km, 47.2° (Epoch: 17 May)

Event Time Altitude Azimuth Distance (km) Brightness Sun altitude
Rises 21:57:49 0° 269° (W) 4,886 10.5 -24.3°
Reaches altitude 10° 22:01:00 10° 268° (W) 3,879 9.9 -24.5°
Maximum altitude 22:10:54 81° 184° (S) 1,617 7.4 -25.3°
Enters shadow 22:18:02 20° 100° (E) 3,003 8.7 -25.8°
Drops below altitude 10° 22:20:24 10° 99° (E) 3,733 - -26.0°
Sets 22:23:24 0° 98° (E) 4,695 - -26.2°
